Weather History for Sumter, SC

Change the Weather History Date:

Wednesday, November 21, 2012

  Actual Average Record
Temperature  
Mean Temperature 48 °F -  
Max Temperature 62 °F 65 °F 78 °F (2011)
Min Temperature 35 °F 40 °F 35 °F (2012)
Degree Days  
Heating Degree Days 16    
Moisture  
Dew Point 39 °F    
Average Humidity 80    
Maximum Humidity 100    
Minimum Humidity 32    
Precipitation  
Precipitation 0.00 in - - ()
Sea Level Pressure  
Sea Level Pressure 30.13 in    
Wind  
Wind Speed 2 mph (NNE)    
Max Wind Speed 14 mph    
Max Gust Speed 20 mph    
Visibility 9 miles    
Events Rain    
Averages and records for this station are not official NWS values.
T = Trace of Precipitation, MM = Missing Value Source: NWS Daily Summary

Daily Weather History Graph

Daily Weather History Graph

Search for Another Location

Airport:

Trip Planner

Search our weather history database for the weather conditions in past years. The results will help you decide how hot, cold, wet, or windy it might be!

Date:

Astronomy

Nov. 21, 2012 Rise Set
Actual Time 7:00 AM EST 5:14 PM EST
Civil Twilight 6:33 AM EST 5:41 PM EST
Nautical Twilight 6:02 AM EST 6:12 PM EST
Astronomical Twilight 5:32 AM EST 6:41 PM EST
Moon 1:15 PM EST 12:34 AM EST
Length of Visible Light 11h 08m
Length of Day
10h 14m
First Quarter, 61% of the Moon is Illuminated
Nov 21
First Quarter
Nov 28
Full
Dec 6
Last Quarter
Dec 13
New
Dec 20
First Quarter

Hourly Weather History & Observations

Time (EST) Temp. Windchill Dew Point Humidity Pressure Visibility Wind Dir Wind Speed Gust Speed Precip Events Conditions
12:15 AM 37.4 °F - 37.4 °F 100% 30.10 in 5.0 mi Calm Calm - N/A   Clear
12:35 AM 39.2 °F - 39.2 °F 100% 30.10 in 7.0 mi Calm Calm - N/A   Clear
12:55 AM 37.4 °F - 37.4 °F 100% 30.11 in 10.0 mi Calm Calm - N/A   Clear
1:15 AM 37.4 °F - 37.4 °F 100% 30.10 in 7.0 mi Calm Calm - N/A   Clear
1:35 AM 37.4 °F - 37.4 °F 100% 30.10 in 9.0 mi Calm Calm - N/A   Clear
1:55 AM 37.4 °F - 37.4 °F 100% 30.09 in 9.0 mi Calm Calm - N/A   Clear
2:15 AM 37.4 °F - 37.4 °F 100% 30.09 in 8.0 mi Calm Calm - N/A   Clear
2:35 AM 37.4 °F - 37.4 °F 100% 30.09 in 10.0 mi Calm Calm - N/A   Clear
2:55 AM 35.6 °F - 35.6 °F 100% 30.10 in 6.0 mi Calm Calm - N/A   Clear
3:15 AM 37.4 °F - 37.4 °F 100% 30.09 in 4.0 mi Calm Calm - N/A   Clear
3:35 AM 37.4 °F - 37.4 °F 100% 30.09 in 8.0 mi Calm Calm - N/A   Clear
3:55 AM 35.6 °F - 35.6 °F 100% 30.09 in 5.0 mi Calm Calm - N/A   Clear
4:15 AM 35.6 °F - 35.6 °F 100% 30.09 in 5.0 mi Calm Calm - N/A   Clear
4:35 AM 35.6 °F - 35.6 °F 100% 30.10 in 9.0 mi Calm Calm - N/A   Clear
4:55 AM 35.6 °F - 35.6 °F 100% 30.10 in 8.0 mi Calm Calm - N/A   Clear
5:15 AM 35.6 °F - 35.6 °F 100% 30.10 in 10.0 mi Calm Calm - N/A Rain Light Rain
5:35 AM 35.6 °F - 35.6 °F 100% 30.10 in 10.0 mi Calm Calm - N/A Rain Light Rain
5:55 AM 35.6 °F - 35.6 °F 100% 30.11 in 8.0 mi Calm Calm - N/A   Clear
6:15 AM 35.6 °F - 35.6 °F 100% 30.11 in 8.0 mi Calm Calm - N/A   Clear
6:35 AM 35.6 °F - 35.6 °F 100% 30.12 in 8.0 mi Calm Calm - N/A   Clear
7:15 AM 35.6 °F - 35.6 °F 100% 30.13 in 5.0 mi Calm Calm - N/A   Clear
7:35 AM 37.4 °F - 37.4 °F 100% 30.14 in 7.0 mi Calm Calm - N/A   Clear
7:55 AM 41.0 °F - 41.0 °F 100% 30.14 in 7.0 mi Calm Calm - N/A   Clear
8:15 AM 44.6 °F 42.2 °F 44.6 °F 100% 30.15 in 8.0 mi NNE 4.6 mph - N/A   Clear
8:35 AM 46.4 °F 42.9 °F 46.4 °F 100% 30.15 in 6.0 mi NE 6.9 mph - N/A   Clear
8:55 AM 48.2 °F - 46.4 °F 93% 30.15 in 5.0 mi NE 6.9 mph - N/A   Clear
9:15 AM 50.0 °F - 46.4 °F 87% 30.16 in 9.0 mi NNE 6.9 mph - N/A   Clear
9:35 AM 50.0 °F - 46.4 °F 87% 30.16 in 4.0 mi NE 6.9 mph - N/A   Haze
9:55 AM 53.6 °F - 46.4 °F 77% 30.17 in 9.0 mi NE 6.9 mph - N/A   Clear
10:15 AM 53.6 °F - 46.4 °F 77% 30.17 in 10.0 mi NNE 4.6 mph - N/A   Clear
10:35 AM 55.4 °F - 46.4 °F 72% 30.16 in 10.0 mi NNE 6.9 mph - N/A   Clear
10:55 AM 55.4 °F - 44.6 °F 67% 30.16 in 10.0 mi NNE 10.4 mph - N/A   Clear
11:15 AM 55.4 °F - 44.6 °F 67% 30.16 in 10.0 mi NNE 8.1 mph - N/A   Clear
11:35 AM 57.2 °F - 44.6 °F 63% 30.15 in 10.0 mi NNE 10.4 mph - N/A   Clear
11:55 AM 59.0 °F - 42.8 °F 55% 30.14 in 10.0 mi North 13.8 mph - N/A   Clear
12:15 PM 59.0 °F - 41.0 °F 51% 30.14 in 10.0 mi North 8.1 mph - N/A   Clear
12:35 PM 59.0 °F - 41.0 °F 51% 30.13 in 10.0 mi North 9.2 mph 19.6 mph N/A   Clear
12:55 PM 62.6 °F - 39.2 °F 42% 30.12 in 10.0 mi NNE 10.4 mph - N/A   Clear
1:15 PM 62.6 °F - 37.4 °F 39% 30.11 in 10.0 mi North 12.7 mph 17.3 mph N/A   Clear
1:35 PM 60.8 °F - 37.4 °F 42% 30.11 in 10.0 mi North 11.5 mph - N/A   Clear
1:55 PM 60.8 °F - 37.4 °F 42% 30.11 in 10.0 mi NNE 9.2 mph - N/A   Clear
2:15 PM 62.6 °F - 39.2 °F 42% 30.10 in 10.0 mi NNE 6.9 mph - N/A   Clear
2:35 PM 62.6 °F - 39.2 °F 42% 30.10 in 10.0 mi NE 6.9 mph - N/A   Clear
2:55 PM 62.6 °F - 32.0 °F 32% 30.10 in 10.0 mi North 11.5 mph - N/A   Clear
3:15 PM 60.8 °F - 32.0 °F 34% 30.10 in 10.0 mi NNE 11.5 mph - N/A   Clear
3:35 PM 62.6 °F - 33.8 °F 34% 30.10 in 10.0 mi NNE 9.2 mph - N/A   Clear
3:55 PM 62.6 °F - 35.6 °F 37% 30.10 in 10.0 mi NNE 9.2 mph - N/A   Clear
4:15 PM 62.6 °F - 35.6 °F 37% 30.10 in 10.0 mi North 6.9 mph - N/A   Clear
4:35 PM 60.8 °F - 35.6 °F 39% 30.10 in 10.0 mi North 5.8 mph - N/A   Clear
4:55 PM 59.0 °F - 37.4 °F 45% 30.11 in 10.0 mi North 3.5 mph - N/A   Clear
5:15 PM 55.4 °F - 37.4 °F 51% 30.11 in 10.0 mi Calm Calm - N/A   Clear
5:35 PM 51.8 °F - 39.2 °F 62% 30.11 in 10.0 mi Calm Calm - N/A   Clear
5:55 PM 50.0 °F - 39.2 °F 66% 30.12 in 10.0 mi Calm Calm - N/A   Clear
6:15 PM 46.4 °F - 39.2 °F 76% 30.13 in 10.0 mi Calm Calm - N/A   Clear
6:35 PM 46.4 °F - 39.2 °F 76% 30.13 in 10.0 mi Calm Calm - N/A   Clear
6:55 PM 44.6 °F - 39.2 °F 81% 30.13 in 10.0 mi Calm Calm - N/A   Clear
7:15 PM 44.6 °F - 39.2 °F 81% 30.14 in 10.0 mi Calm Calm - N/A   Clear
7:35 PM 42.8 °F - 39.2 °F 87% 30.14 in 10.0 mi Calm Calm - N/A   Clear
7:55 PM 41.0 °F - 37.4 °F 87% 30.15 in 10.0 mi Calm Calm - N/A   Clear
8:15 PM 41.0 °F - 39.2 °F 93% 30.15 in 10.0 mi Calm Calm - N/A   Clear
8:35 PM 39.2 °F - 39.2 °F 100% 30.15 in 10.0 mi Calm Calm - N/A   Clear
8:55 PM 41.0 °F - 39.2 °F 93% 30.15 in 10.0 mi Calm Calm - N/A   Clear
9:15 PM 39.2 °F - 39.2 °F 100% 30.15 in 10.0 mi Calm Calm - N/A   Clear
9:35 PM 39.2 °F - 39.2 °F 100% 30.16 in 10.0 mi Calm Calm - N/A   Clear
9:55 PM 39.2 °F - 39.2 °F 100% 30.17 in 10.0 mi Calm Calm - N/A   Clear
10:15 PM 37.4 °F - 37.4 °F 100% 30.17 in 10.0 mi Calm Calm - N/A   Clear
10:35 PM 39.2 °F - 37.4 °F 93% 30.17 in 10.0 mi Calm Calm - N/A   Clear
10:55 PM 41.0 °F - 35.6 °F 81% 30.17 in 10.0 mi Calm Calm - N/A   Clear
11:15 PM 39.2 °F - 35.6 °F 87% 30.17 in 10.0 mi Calm Calm - N/A   Clear
11:35 PM 39.2 °F - 35.6 °F 87% 30.16 in 10.0 mi Calm Calm - N/A   Clear
11:55 PM 37.4 °F - 35.6 °F 93% 30.17 in 10.0 mi Calm Calm - N/A   Clear